Weather in Aleksandrovka Tretya

Russia / Saratov Oblast     51°40′53″N   44°09′02″E
temp.,
°C
wind,
m/s
gust,
m/s
humid.,
%
clouds,
%
prec.,
mm/h
press.,
hPa
HPBL,
m
16 april, fri
fri1601:00+12sse2256100 0.0 101514
04:00+11e235882 0.0 101518
07:00+10se336078 0.0 101640
10:00+15sse244973 0.0 1016338
13:00+18sse3337100 0.0 1017919
16:00+20sse23335 0.0 10171523
19:00+18ese114423 0.0 101711
22:00+13se3361100 0.0 101843
17 april, sat
sat1701:00+12s11695 0.0 101810
04:00+11ssw117833 0.0 101910
07:00+10ese227977 0.0 101924
10:00+15se585298 0.0 1019517
13:00+19se7940100 0.0 10182044
16:00+13sw7871100 0.4 1019474
19:00+9wsw4884100 0.8 1020397
22:00+9ssw0090100 1.3 102129
18 april, sun
sun1801:00+8nw1293100 3.9 1020186
04:00+8wnw239383 4.8 1021182
07:00+6wnw35930 0.0 1020124
10:00+11w45643 0.0 1020601
13:00+14w445451 0.0 10201479
16:00+15w434762 0.0 10191634
19:00+13w345699 0.0 1020126
22:00+10wnw356893 0.0 102181
19 april, mon
mon1901:00+8nw357787 0.0 102180
04:00+8n2279100 0.0 102127
07:00+8ne3485100 0.0 102188
10:00+12e5678100 0.1 1021618
13:00+11e6775100 0.0 1021730
16:00+11e7870100 0.0 1021938
19:00+9e7118076 0.0 1022690
22:00+7e71490100 0.0 1021614
20 april, tue
tue2001:00+7e81588100 0.0 1021618
04:00+6e91689100 0.0 1020597
07:00+6ese101786100 0.0 1019632
10:00+7ese112078100 0.0 1018714
13:00+11ese121869100 0.0 10171007
16:00+9ese121981100 1.3 1015901
19:00+8ese122286100 5.4 1015890
22:00+8se101986100 12.1 1016961